Location: Zagreb
(45.8000°N, 16.0000°E)
Time: 19:04:07
(UTC+02:00)

A-11 Canister half - Pass Details

Date: 17 August 2022
Orbit: 1524 x 1684 km, 47.3° (Epoch: 05 October)

Event Time Altitude Azimuth Distance (km) Brightness Sun altitude
Rises 06:28:05 0° 253° (WSW) 4,903 10.9 4.1°
Reaches altitude 10° 06:31:12 10° 254° (WSW) 3,928 10.5 4.6°
Maximum altitude 06:41:24 90° 337° (NNW) 1,689 9.4 6.4°
Drops below altitude 10° 06:51:36 10° 77° (ENE) 3,933 15.1 8.1°
Sets 06:54:44 0° 78° (ENE) 4,910 14.2 8.6°
